Simultaneous Nadir Overpasses (SNOs) Predictions

Prediction of SNOs between NOAA-15 and METOP-C Satellite Orbit:

Table of predicted SNOs for the next 14.0 days since TLE Epoch: 9/4/2023
Index Date (NOAA-15) Time (NOAA-15) Lat,Lon (NOAA-15) SZA (NOAA-15 ) Date (METOP-C) Time (METOP-C) Lat,Lon (METOP-C) SZA (METOP-C ) Distance(km) Time Diff (sec)
1 09/17/2023 06:41:04 81.09, 117.78 80.77 09/17/2023 06:39:50 81.09, 117.96 80.76 3.00 74
2 09/17/2023 07:31:37 -81.09, -74.81 99.22 09/17/2023 07:30:30 -81.10, -74.63 99.22 3.17 67
3 09/17/2023 08:22:05 81.10, 92.43 80.79 09/17/2023 08:21:12 81.09, 92.42 80.76 1.15 53
4 09/17/2023 09:12:38 -81.09,-100.16 99.20 09/17/2023 09:11:52 -81.09,-100.16 99.22 0.53 46
5 09/17/2023 10:03:05 81.08, 67.44 80.84 09/17/2023 10:02:33 81.09, 67.26 80.81 3.27 32
6 09/17/2023 10:53:39 -81.10,-125.51 99.18 09/17/2023 10:53:13 -81.10,-125.32 99.17 3.22 26
7 09/17/2023 11:44:06 81.09, 42.09 80.86 09/17/2023 11:43:54 81.10, 42.10 80.86 1.24 12
8 09/17/2023 12:34:40 -81.10,-150.86 99.15 09/17/2023 12:34:35 -81.09,-150.85 99.17 1.53 5
9 09/17/2023 13:25:07 81.09, 16.73 80.88 09/17/2023 13:25:16 81.09, 16.57 80.87 2.85 9
10 09/17/2023 14:15:40 -81.09,-175.84 99.11 09/17/2023 14:15:56 -81.10,-176.02 99.12 3.05 16
11 09/17/2023 15:06:08 81.10, -8.62 80.90 09/17/2023 15:06:37 81.10, -8.59 80.92 0.54 29
12 09/17/2023 15:56:41 -81.09, 158.81 99.09 09/17/2023 15:57:17 -81.10, 158.82 99.06 0.90 36
13 09/17/2023 16:47:09 81.10, -33.98 80.92 09/17/2023 16:47:59 81.09, -34.13 80.92 2.82 50
14 09/17/2023 17:37:42 -81.10, 133.46 99.07 09/17/2023 17:38:39 -81.09, 133.29 99.06 2.88 57
15 09/17/2023 18:28:10 81.11, -59.34 80.94 09/17/2023 18:29:20 81.10, -59.29 80.97 1.23 70



Historial Predications of SNOs between NOAA-15 and METOP-C
